[[{"header":{"parameterUnit":"m.s-1","parameterCategory":1,"la1":30.2991,"la2":30.254,"lo1":-89.0895,"lo2":-89.0444,"dy":0.0017,"dx":0.0017,"nx":28,"ny":28,"refTime":"2024-10-21T09:00:00:Z","depth":0,"parameterNumber":2,"parameterNumberName":"U-component_of_WINDS"},"data":[0,0,0,0,0,0,0,0,0,0,0,0,0,0,0,0,0,0,0,0,0,0,0,0,0,0,0,0,0,0,0,0,0,0,0,0,0,0,0,0,0,0,0,0,0,0,0,0,0,0,0,0,0,0,0,0,0,0,0.7864,0.7863,0,0.7815,0.7814,0.7814,0.7789,0.7789,0.7789,0.7789,0.7736,0.7734,0.7733,0,0,0,0,0,0,0,0,0,0,0,0,0,0.7932,0.7931,0.7864,0.7863,0.7862,0.7815,0.7814,0.7814,0.7789,0.7789,0.7789,0.7789,0.7736,0.7735,0.7733,0,0,0,0,0,0,0,0,0,0,0,0,0,0.7895,0.793,0.7864,0.7845,0.7842,0.7815,0.7814,0.7814,0.7789,0.7789,0.7789,0.7789,0.7737,0.7735,0.7733,0.772,0,0,0.7726,0.7725,0,0,0,0,0,0,0,0,0.7897,0.7892,0.7848,0.7846,0.7843,0.7808,0.7819,0.7782,0.7789,0.7809,0.7789,0.7789,0.776,0.7756,0.7747,0.7717,0.7715,0.7726,0.7725,0.7724,0.7723,0,0,0,0,0,0,0,0.7899,0.7894,0.7844,0.7847,0.7844,0.7837,0.7832,0.7812,0.7785,0.7808,0.7806,0.78,0.7758,0.7749,0.7745,0.7714,0.7726,0.7724,0.7723,0.7722,0.7672,0.7672,0,0,0,0,0,0,0.7906,0.7896,0.7846,0.7843,0.7871,0.7836,0.783,0.7819,0.7785,0.778,0.78,0.7799,0.7752,0.7748,0.7743,0.7726,0.7724,0.7722,0.7721,0.7672,0.7672,0.7672,0,0,0,0,0,0,0.7907,0.7901,0.7848,0.7869,0.7862,0.7835,0.7823,0.7818,0.7809,0.778,0.7775,0.7796,0.7752,0.7746,0.7726,0.7724,0.7721,0.7719,0.7672,0.7672,0.7672,0.7691,0,0,0,0,0,0,0.7909,0.7902,0.7898,0.7869,0.7861,0.7833,0.7823,0.7818,0.7806,0.7804,0.7774,0.7769,0.7752,0.7729,0.7724,0.7721,0.7717,0.7672,0.7672,0.7672,0.7691,0.7692,0.7693,0,0,0,0,0,0.7912,0.7904,0.7897,0.7891,0.7855,0.7832,0.7827,0.7809,0.7805,0.78,0.7782,0.777,0.7725,0.7728,0.7721,0.7717,0.7673,0.7672,0.7672,0.769,0.7692,0.7693,0,0,0,0,0,0,0.7931,0.79,0.7892,0.7875,0.7857,0.7828,0.7821,0.7811,0.7792,0.7791,0.7767,0.7761,0.7743,0.7728,0.7731,0.7703,0.7698,0.7696,0.7713,0.7714,0.7716,0.7719,0.7716,0,0,0,0,0,0.7934,0.792,0.7892,0.788,0.7871,0.7848,0.7838,0.7825,0.7804,0.7796,0.7776,0.7756,0.7737,0.7725,0.7706,0.7689,0.7682,0.7683,0.7684,0.7685,0.7684,0.7674,0.7674,0.7672,0.7672,0.7672,0,0,0.7938,0.792,0.7912,0.7884,0.7868,0.7853,0.7842,0.7826,0.7814,0.7793,0.7773,0.7758,0.7734,0.7715,0.7706,0.7702,0.7683,0.7685,0.7686,0.7684,0.7673,0.7674,0.7674,0.7672,0.7672,0.7672,0,0,0.7939,0.7924,0.7912,0.7897,0.7874,0.7858,0.7856,0.7829,0.7818,0.7798,0.7783,0.7768,0.7736,0.7719,0.7707,0.7702,0.769,0.7697,0.7702,0.7692,0.7692,0.7692,0.769,0.769,0.7696,0.7696,0.7696,0,0.7948,0.7925,0.7907,0.7892,0.788,0.7862,0.785,0.7835,0.7807,0.7798,0.7795,0.7755,0.7737,0.7715,0.7714,0.7704,0.77,0.77,0.7694,0.7694,0.7693,0.7691,0.7691,0.7697,0.7697,0.7696,0.7696,0,0.7937,0.7921,0.7914,0.7889,0.7876,0.7862,0.7841,0.783,0.7819,0.7803,0.7783,0.7762,0.7738,0.7732,0.772,0.7708,0.7706,0.7699,0.7692,0.7695,0.7692,0.7692,0.7698,0.7698,0.7697,0.7697,0,0,0.7947,0.7913,0.7911,0.7899,0.7872,0.786,0.7845,0.7823,0.7814,0.7795,0.7782,0.7756,0.7749,0.7735,0.7721,0.7713,0.771,0.7706,0.7705,0.7707,0.7695,0.7701,0.77,0.7703,0.7702,0.7702,0.7697,0,0.7944,0.7919,0.7902,0.7883,0.7868,0.7851,0.7839,0.782,0.7806,0.7791,0.7774,0.7756,0.7749,0.774,0.7731,0.7713,0.7707,0.7713,0.7689,0.7689,0.7696,0.7699,0.7704,0.77,0.7696,0.7696,0.7696,0,0.7937,0.792,0.79,0.7875,0.7869,0.7858,0.7837,0.7823,0.7801,0.7791,0.7776,0.7762,0.7745,0.7741,0.7717,0.7721,0.7711,0.77,0.77,0.7696,0.7692,0.7695,0.7699,0.7698,0.7694,0.7694,0.7694,0,0.7947,0.7919,0.7903,0.7894,0.7865,0.7857,0.7845,0.7824,0.7812,0.7793,0.7785,0.7765,0.7753,0.7737,0.7717,0.7716,0.7695,0.769,0.7686,0.7686,0.7682,0.7682,0.7683,0.7676,0.7676,0.7676,0.7676,0,0.7945,0.7933,0.7907,0.7898,0.7884,0.7864,0.7851,0.7836,0.7818,0.7805,0.7788,0.7776,0.7751,0.7735,0.772,0.7702,0.7697,0.7688,0.7684,0.7689,0.769,0.7681,0.7681,0.7675,0.7675,0.7676,0.7676,0,0.7953,0.7936,0.7918,0.7892,0.7886,0.7876,0.7854,0.7844,0.7829,0.7812,0.7807,0.7783,0.7763,0.7743,0.7716,0.7706,0.7688,0.7683,0.7696,0.7694,0.7691,0.7691,0.7686,0.7684,0.7678,0.7679,0.7679,0,0.7953,0.7944,0.7918,0.7909,0.7897,0.7882,0.787,0.7851,0.7839,0.7815,0.7807,0.7787,0.7769,0.7739,0.7718,0.7698,0.7691,0.7691,0.7688,0.7694,0.7691,0.7692,0.769,0.7692,0.7692,0.7692,0.7692,0,0.7955,0.7947,0.7931,0.7913,0.79,0.7884,0.7867,0.786,0.7837,0.7825,0.7805,0.7792,0.7766,0.7745,0.7722,0.7708,0.7696,0.7693,0.7691,0.7696,0.7704,0.77,0.7698,0.7693,0.7693,0.7693,0.7693,0.7693,0.7958,0.7949,0.793,0.7913,0.7899,0.7884,0.7873,0.7858,0.7842,0.782,0.7809,0.7789,0.7768,0.7737,0.7723,0.7707,0.7703,0.77,0.7699,0.7699,0.77,0.7707,0.7702,0.7702,0.7702,0.7702,0.7702,0,0.7959,0.7946,0.7931,0.7909,0.7896,0.7887,0.7868,0.7857,0.7841,0.7823,0.7807,0.7785,0.7765,0.7744,0.7723,0.7714,0.7708,0.7709,0.7709,0.7706,0.7705,0.7708,0.7714,0.7714,0.7714,0.7714,0.7714,0.7714,0.7957,0.7942,0.7932,0.7909,0.7895,0.7878,0.7868,0.7853,0.7839,0.7816,0.78,0.7786,0.7767,0.7744,0.7726,0.772,0.7713,0.7715,0.7708,0.7707,0.7706,0.7705,0.7708,0.7714,0.7714,0.771,0.771,0.771]},{"header":{"parameterUnit":"m.s-1","parameterCategory":1,"la1":30.2991,"la2":30.254,"lo1":-89.0895,"lo2":-89.0444,"dy":0.0017,"dx":0.0017,"nx":28,"ny":28,"refTime":"2024-10-21T09:00:00:Z","depth":0,"parameterNumber":3,"parameterNumberName":"V-component_of_WINDS"},"data":[0,0,0,0,0,0,0,0,0,0,0,0,0,0,0,0,0,0,0,0,0,0,0,0,0,0,0,0,0,0,0,0,0,0,0,0,0,0,0,0,0,0,0,0,0,0,0,0,0,0,0,0,0,0,0,0,0,0,-0.733,-0.7331,0,-0.7392,-0.7393,-0.7394,-0.742,-0.7419,-0.7419,-0.7419,-0.7483,-0.7485,-0.7487,0,0,0,0,0,0,0,0,0,0,0,0,0,-0.7234,-0.7236,-0.733,-0.7331,-0.7331,-0.7392,-0.7393,-0.7394,-0.742,-0.7419,-0.7419,-0.7419,-0.7482,-0.7485,-0.7487,0,0,0,0,0,0,0,0,0,0,0,0,0,-0.7284,-0.7236,-0.733,-0.7352,-0.7354,-0.7392,-0.7393,-0.7394,-0.742,-0.7419,-0.7419,-0.7419,-0.7482,-0.7484,-0.7487,-0.7508,0,0,-0.7495,-0.7497,0,0,0,0,0,0,0,0,-0.7281,-0.7287,-0.7348,-0.735,-0.7353,-0.7398,-0.7383,-0.7432,-0.742,-0.7395,-0.7419,-0.7419,-0.7455,-0.746,-0.7472,-0.7511,-0.7513,-0.7496,-0.7497,-0.7498,-0.7499,0,0,0,0,0,0,0,-0.7277,-0.7285,-0.7354,-0.7348,-0.7352,-0.7359,-0.7365,-0.7392,-0.7425,-0.7397,-0.7399,-0.7406,-0.7456,-0.7469,-0.7474,-0.7514,-0.7496,-0.7498,-0.75,-0.7501,-0.7574,-0.7574,0,0,0,0,0,0,-0.727,-0.7282,-0.7352,-0.7356,-0.7316,-0.736,-0.7368,-0.7384,-0.7425,-0.7431,-0.7406,-0.7407,-0.7465,-0.747,-0.7476,-0.7503,-0.7498,-0.7501,-0.7503,-0.7574,-0.7574,-0.7574,0,0,0,0,0,0,-0.7268,-0.7276,-0.735,-0.732,-0.733,-0.7362,-0.738,-0.7385,-0.7398,-0.7432,-0.7438,-0.7413,-0.7465,-0.7472,-0.75,-0.7506,-0.7502,-0.7505,-0.7573,-0.7574,-0.7574,-0.7557,0,0,0,0,0,0,-0.7265,-0.7275,-0.7283,-0.732,-0.7331,-0.7372,-0.738,-0.7386,-0.7402,-0.7404,-0.744,-0.7446,-0.7465,-0.7496,-0.7502,-0.7509,-0.7507,-0.7573,-0.7573,-0.7574,-0.7558,-0.7557,-0.7557,0,0,0,0,0,-0.7262,-0.7276,-0.7284,-0.7292,-0.7342,-0.7373,-0.7379,-0.7401,-0.7403,-0.7411,-0.7433,-0.7445,-0.7504,-0.7498,-0.7506,-0.7514,-0.7573,-0.7573,-0.7574,-0.7558,-0.7557,-0.7557,0,0,0,0,0,0,-0.7239,-0.7281,-0.729,-0.7316,-0.7341,-0.7377,-0.7388,-0.74,-0.7424,-0.7425,-0.7452,-0.7459,-0.7485,-0.7502,-0.7495,-0.7537,-0.7539,-0.7542,-0.7524,-0.7524,-0.7524,-0.7519,-0.7509,0,0,0,0,0,-0.7237,-0.7259,-0.7295,-0.7314,-0.7326,-0.7355,-0.7369,-0.7384,-0.7411,-0.7421,-0.7445,-0.747,-0.7495,-0.7511,-0.7535,-0.756,-0.7569,-0.757,-0.7569,-0.7569,-0.7571,-0.7586,-0.7587,-0.7577,-0.7577,-0.7577,0,0,-0.7234,-0.7259,-0.7271,-0.731,-0.7331,-0.7353,-0.7364,-0.7386,-0.7403,-0.7425,-0.7452,-0.7471,-0.7501,-0.7528,-0.7541,-0.7543,-0.7576,-0.757,-0.7569,-0.7571,-0.7587,-0.7588,-0.7589,-0.7577,-0.7577,-0.7577,0,0,-0.7238,-0.726,-0.7279,-0.73,-0.7331,-0.735,-0.7355,-0.7389,-0.7403,-0.7431,-0.7448,-0.7468,-0.751,-0.7531,-0.7547,-0.756,-0.7572,-0.7568,-0.7566,-0.7581,-0.7582,-0.7582,-0.7588,-0.7589,-0.7569,-0.7569,-0.7569,0,-0.723,-0.7264,-0.7287,-0.7309,-0.7326,-0.7347,-0.7367,-0.7386,-0.7424,-0.7435,-0.7437,-0.749,-0.7512,-0.7544,-0.7547,-0.756,-0.7566,-0.7563,-0.758,-0.7581,-0.7582,-0.7587,-0.7589,-0.7568,-0.7568,-0.7569,-0.7569,0,-0.7252,-0.7275,-0.7287,-0.7323,-0.7341,-0.7362,-0.7389,-0.7405,-0.7419,-0.7438,-0.7467,-0.7493,-0.7524,-0.7533,-0.7546,-0.7567,-0.7568,-0.7574,-0.7578,-0.7582,-0.7587,-0.7589,-0.7567,-0.7568,-0.7568,-0.7568,0,0,-0.7243,-0.7293,-0.7297,-0.7314,-0.735,-0.7369,-0.7391,-0.7421,-0.7434,-0.746,-0.7479,-0.7514,-0.7521,-0.7539,-0.7555,-0.7568,-0.7578,-0.7573,-0.7574,-0.7573,-0.7604,-0.7598,-0.76,-0.7586,-0.7586,-0.7587,-0.7601,0,-0.7253,-0.7293,-0.7316,-0.7347,-0.7369,-0.739,-0.7409,-0.7434,-0.7452,-0.7474,-0.7495,-0.752,-0.7526,-0.7537,-0.7551,-0.7574,-0.7584,-0.7573,-0.7605,-0.7605,-0.7596,-0.7603,-0.7598,-0.761,-0.7603,-0.7604,-0.7604,0,-0.727,-0.7295,-0.7328,-0.7363,-0.7373,-0.739,-0.742,-0.7441,-0.7469,-0.7482,-0.7503,-0.7519,-0.7544,-0.7545,-0.758,-0.7572,-0.7586,-0.7599,-0.76,-0.7604,-0.7605,-0.7607,-0.7614,-0.7616,-0.7608,-0.7607,-0.7607,0,-0.7261,-0.7303,-0.7329,-0.7343,-0.7384,-0.7395,-0.7413,-0.7442,-0.7459,-0.7485,-0.7496,-0.7524,-0.754,-0.7562,-0.7586,-0.7585,-0.7618,-0.7622,-0.763,-0.7629,-0.7636,-0.7635,-0.7646,-0.7645,-0.7645,-0.7645,-0.7645,0,-0.7269,-0.7289,-0.7326,-0.7341,-0.7364,-0.739,-0.7412,-0.7431,-0.7457,-0.7477,-0.7497,-0.7515,-0.7545,-0.7568,-0.7586,-0.7613,-0.762,-0.7631,-0.7636,-0.7629,-0.7628,-0.7639,-0.7639,-0.7645,-0.7645,-0.7645,-0.7645,0,-0.7263,-0.7288,-0.7318,-0.7354,-0.7364,-0.7379,-0.7411,-0.7427,-0.7447,-0.7473,-0.748,-0.7512,-0.7539,-0.7565,-0.7602,-0.7615,-0.7641,-0.7647,-0.7631,-0.7634,-0.7641,-0.764,-0.7659,-0.7663,-0.7659,-0.7659,-0.7659,0,-0.7267,-0.7282,-0.7321,-0.7336,-0.7353,-0.7377,-0.7395,-0.7421,-0.7438,-0.7472,-0.7485,-0.7514,-0.7539,-0.7582,-0.7608,-0.7637,-0.7644,-0.7648,-0.7648,-0.7641,-0.7644,-0.7643,-0.7645,-0.7648,-0.7648,-0.7648,-0.7648,0,-0.7271,-0.7283,-0.7307,-0.7336,-0.7357,-0.7381,-0.7405,-0.7416,-0.7447,-0.7466,-0.7495,-0.7514,-0.7552,-0.758,-0.7612,-0.7631,-0.7645,-0.7648,-0.7651,-0.7645,-0.7635,-0.7641,-0.763,-0.7647,-0.7647,-0.7647,-0.7647,-0.7647,-0.727,-0.7285,-0.7315,-0.7342,-0.7363,-0.7386,-0.7403,-0.7426,-0.745,-0.7483,-0.7497,-0.7526,-0.7555,-0.7599,-0.7618,-0.7641,-0.7644,-0.7649,-0.765,-0.7651,-0.765,-0.7631,-0.7647,-0.7647,-0.7647,-0.7647,-0.7647,0,-0.7276,-0.7296,-0.732,-0.7354,-0.7376,-0.7387,-0.7415,-0.7432,-0.7457,-0.7483,-0.7507,-0.7541,-0.7569,-0.7598,-0.7628,-0.7641,-0.7648,-0.7648,-0.7647,-0.7652,-0.7645,-0.764,-0.7642,-0.7642,-0.7642,-0.7642,-0.7642,-0.7642,-0.7281,-0.7308,-0.7323,-0.7361,-0.7381,-0.741,-0.7425,-0.7446,-0.7467,-0.7503,-0.7527,-0.7546,-0.7573,-0.7605,-0.7632,-0.764,-0.765,-0.7648,-0.7658,-0.7652,-0.7652,-0.7652,-0.7647,-0.765,-0.765,-0.7662,-0.7662,-0.7662]}]]